�������l�o���
Date,Time,MP-1(��Sv/h),MP-2(��Sv/h),MP-3(��Sv/h),MP-4(��Sv/h),MP-5(��Sv/h),MP-6(��Sv/h),MP-7(��Sv/h),MP-8(��Sv/h),����,����(m/s),���J
2022/01/28,00:00,0.581,0.868,0.554,1.069,0.751,0.352,0.612,0.578,�k��,4.9,��
2022/01/28,00:10,0.581,0.869,0.553,1.069,0.753,0.350,0.612,0.580,�k��,4.6,��
2022/01/28,00:20,0.583,0.869,0.552,1.069,0.752,0.352,0.611,0.579,�k��,3.6,��
2022/01/28,00:30,0.581,0.869,0.552,1.073,0.752,0.351,0.610,0.579,�k��,4.1,��
2022/01/28,00:40,0.581,0.869,0.554,1.070,0.753,0.351,0.610,0.580,�k��,3.7,��
2022/01/28,00:50,0.582,0.870,0.553,1.071,0.753,0.350,0.611,0.578,�k��,4.2,��
2022/01/28,01:00,0.581,0.868,0.553,1.071,0.752,0.350,0.612,0.579,�k��,3.7,��
2022/01/28,01:10,0.580,0.868,0.552,1.070,0.753,0.351,0.610,0.578,�k��,5.0,��
2022/01/28,01:20,0.583,0.869,0.554,1.070,0.753,0.350,0.611,0.578,�k��,4.3,��
2022/01/28,01:30,0.583,0.869,0.553,1.070,0.755,0.350,0.611,0.579,�k�k��,4.2,��
2022/01/28,01:40,0.582,0.868,0.555,1.071,0.752,0.350,0.611,0.579,�k�k��,4.2,��
2022/01/28,01:50,0.581,0.867,0.553,1.071,0.752,0.350,0.611,0.578,�k��,4.0,��
2022/01/28,02:00,0.582,0.867,0.553,1.072,0.753,0.351,0.610,0.579,�k��,3.4,��
2022/01/28,02:10,0.581,0.868,0.552,1.070,0.752,0.352,0.610,0.580,�k�k��,4.9,��
2022/01/28,02:20,0.579,0.868,0.553,1.071,0.752,0.351,0.610,0.578,�k�k��,4.3,��
2022/01/28,02:30,0.581,0.868,0.554,1.071,0.753,0.352,0.609,0.578,�k�k��,4.3,��
2022/01/28,02:40,0.582,0.868,0.553,1.069,0.754,0.351,0.610,0.578,�k�k��,4.8,��
2022/01/28,02:50,0.581,0.869,0.554,1.069,0.752,0.349,0.612,0.579,�k��,4.3,��
2022/01/28,03:00,0.582,0.866,0.553,1.070,0.754,0.350,0.611,0.579,�k�k��,4.7,��
2022/01/28,03:10,0.580,0.869,0.554,1.071,0.753,0.350,0.611,0.579,�k�k��,5.3,��
2022/01/28,03:20,0.581,0.865,0.553,1.071,0.751,0.350,0.611,0.579,�k�k��,4.7,��
2022/01/28,03:30,0.582,0.870,0.554,1.072,0.754,0.350,0.610,0.580,�k�k��,4.5,��
2022/01/28,03:40,0.581,0.868,0.553,1.070,0.752,0.350,0.610,0.579,�k�k��,4.7,��
2022/01/28,03:50,0.580,0.867,0.553,1.068,0.753,0.351,0.611,0.579,�k�k��,4.6,��
2022/01/28,04:00,0.580,0.867,0.553,1.071,0.753,0.351,0.610,0.578,�k�k��,4.1,��
2022/01/28,04:10,0.581,0.868,0.553,1.071,0.752,0.350,0.610,0.578,�k�k��,3.4,��
2022/01/28,04:20,0.580,0.868,0.555,1.068,0.752,0.350,0.610,0.578,�k�k��,3.1,��
2022/01/28,04:30,0.581,0.868,0.554,1.071,0.753,0.351,0.609,0.579,�k�k��,4.1,��
2022/01/28,04:40,0.581,0.867,0.552,1.071,0.751,0.351,0.610,0.578,�k�k��,4.6,��
2022/01/28,04:50,0.581,0.870,0.552,1.070,0.751,0.350,0.610,0.577,�k��,4.0,��
2022/01/28,05:00,0.581,0.867,0.553,1.067,0.752,0.349,0.612,0.577,�k��,3.7,��
2022/01/28,05:10,0.581,0.869,0.553,1.070,0.751,0.350,0.608,0.577,�k��,3.9,��
2022/01/28,05:20,0.579,0.869,0.553,1.070,0.752,0.351,0.609,0.578,���k��,3.4,��
2022/01/28,05:30,0.580,0.869,0.553,1.069,0.752,0.351,0.609,0.579,���k��,4.6,��
2022/01/28,05:40,0.580,0.867,0.554,1.069,0.751,0.352,0.610,0.579,���k��,3.6,��
2022/01/28,05:50,0.579,0.867,0.553,1.070,0.749,0.351,0.610,0.578,���k��,3.3,��
2022/01/28,06:00,0.579,0.869,0.553,1.072,0.750,0.350,0.609,0.579,���k��,3.5,��
2022/01/28,06:10,0.581,0.868,0.552,1.071,0.751,0.350,0.608,0.579,���k��,3.8,��
2022/01/28,06:20,0.580,0.867,0.554,1.071,0.750,0.350,0.610,0.577,���k��,3.6,��
2022/01/28,06:30,0.581,0.864,0.552,1.071,0.751,0.350,0.611,0.579,���k��,3.0,��
2022/01/28,06:40,0.581,0.867,0.553,1.070,0.751,0.351,0.611,0.578,���k��,3.3,��
2022/01/28,06:50,0.581,0.867,0.552,1.068,0.751,0.350,0.609,0.580,��,3.4,��
2022/01/28,07:00,0.581,0.866,0.552,1.070,0.749,0.351,0.611,0.578,��,3.1,��
2022/01/28,07:10,0.581,0.866,0.551,1.070,0.749,0.351,0.610,0.578,���k��,2.3,��
2022/01/28,07:20,0.580,0.868,0.553,1.068,0.751,0.351,0.610,0.577,���k��,1.5,��
2022/01/28,07:30,0.581,0.869,0.552,1.069,0.751,0.350,0.609,0.579,��,1.4,��
2022/01/28,07:40,0.580,0.867,0.554,1.068,0.752,0.351,0.611,0.579,��,1.7,��
2022/01/28,07:50,0.580,0.869,0.554,1.070,0.751,0.349,0.611,0.579,��,1.1,��
2022/01/28,08:00,0.582,0.868,0.553,1.071,0.750,0.351,0.609,0.580,���k��,3.1,��
2022/01/28,08:10,0.580,0.866,0.553,1.070,0.749,0.348,0.611,0.578,���k��,5.3,��
2022/01/28,08:20,0.582,0.866,0.553,1.069,0.751,0.349,0.611,0.578,�k��,3.4,��
2022/01/28,08:30,0.582,0.864,0.553,1.070,0.751,0.348,0.610,0.579,��,0.6,��
2022/01/28,08:40,0.580,0.867,0.554,1.071,0.752,0.348,0.612,0.577,-,CALM,��
2022/01/28,08:50,0.583,0.863,0.553,1.071,0.750,0.349,0.612,0.578,��,0.9,��
2022/01/28,09:00,0.583,0.864,0.553,1.070,0.751,0.350,0.612,0.579,-,CALM,��
2022/01/28,09:10,0.583,0.864,0.554,1.070,0.750,0.350,0.612,0.580,���쐼,1.1,��
2022/01/28,09:20,0.583,0.863,0.553,1.069,0.750,0.350,0.611,0.578,�쓌,1.2,��
2022/01/28,09:30,0.583,0.866,0.555,1.070,0.751,0.349,0.614,0.579,�쓌,2.5,��
2022/01/28,09:40,0.585,0.861,0.553,1.069,0.751,0.352,0.614,0.578,���쓌,2.5,��
2022/01/28,09:50,0.582,0.866,0.554,1.070,0.751,0.351,0.612,0.579,�쓌,3.1,��
2022/01/28,10:00,0.583,0.865,0.555,1.073,0.751,0.351,0.610,0.581,��쓌,2.6,��
2022/01/28,10:10,0.583,0.865,0.555,1.071,0.751,0.352,0.610,0.579,�쓌,2.2,��
2022/01/28,10:20,0.585,0.863,0.554,1.071,0.752,0.352,0.611,0.580,��,1.2,��
2022/01/28,10:30,0.584,0.867,0.554,1.071,0.751,0.351,0.610,0.578,�쐼,5.5,��
2022/01/28,10:40,0.583,0.867,0.553,1.071,0.752,0.352,0.611,0.579,���쐼,5.5,��
2022/01/28,10:50,0.582,0.869,0.556,1.071,0.753,0.351,0.611,0.580,���쐼,4.8,��
2022/01/28,11:00,0.584,0.868,0.554,1.071,0.752,0.352,0.610,0.580,���쐼,5.7,��
2022/01/28,11:10,0.584,0.870,0.555,1.072,0.752,0.351,0.610,0.578,���쐼,4.6,��
2022/01/28,11:20,0.583,0.873,0.556,1.071,0.753,0.350,0.610,0.579,���쐼,4.1,��
2022/01/28,11:30,0.584,0.870,0.556,1.070,0.752,0.351,0.610,0.580,��,3.8,��
2022/01/28,11:40,0.585,0.871,0.555,1.071,0.754,0.350,0.609,0.580,��,5.6,��
2022/01/28,11:50,0.584,0.871,0.556,1.072,0.756,0.351,0.610,0.580,���k��,4.9,��
2022/01/28,12:00,0.584,0.872,0.555,1.072,0.754,0.351,0.611,0.580,���k��,5.0,��
2022/01/28,12:10,0.586,0.872,0.556,1.072,0.754,0.351,0.611,0.581,�k�k��,4.5,�L
2022/01/28,12:20,0.585,0.872,0.556,1.071,0.757,0.352,0.610,0.580,�k��,4.8,�L
2022/01/28,12:30,0.586,0.872,0.557,1.073,0.755,0.350,0.612,0.580,�k�k��,3.8,�L
2022/01/28,12:40,0.585,0.871,0.556,1.072,0.756,0.350,0.612,0.580,�k�k��,3.0,��
2022/01/28,12:50,0.585,0.870,0.558,1.075,0.755,0.350,0.613,0.583,�k�k��,3.2,��
2022/01/28,13:00,0.585,0.872,0.556,1.076,0.754,0.352,0.613,0.582,�k��,3.8,�L
2022/01/28,13:10,0.586,0.873,0.556,1.072,0.757,0.350,0.611,0.581,��,5.4,��
2022/01/28,13:20,0.589,0.872,0.555,1.074,0.754,0.350,0.612,0.580,��,6.4,��
2022/01/28,13:30,0.585,0.875,0.557,1.074,0.755,0.352,0.611,0.580,���쐼,7.6,��
2022/01/28,13:40,0.585,0.876,0.557,1.073,0.755,0.354,0.612,0.579,���쐼,7.6,��
2022/01/28,13:50,0.585,0.873,0.556,1.074,0.755,0.352,0.612,0.579,���k��,9.3,��
2022/01/28,14:00,0.585,0.871,0.557,1.075,0.755,0.352,0.612,0.578,��,6.9,��
2022/01/28,14:10,0.586,0.871,0.555,1.075,0.755,0.352,0.614,0.579,��,7.5,��
2022/01/28,14:20,0.587,0.873,0.557,1.076,0.754,0.352,0.612,0.579,��,9.0,��
2022/01/28,14:30,0.585,0.872,0.557,1.073,0.752,0.352,0.613,0.578,��,7.3,��
2022/01/28,14:40,0.584,0.870,0.555,1.075,0.756,0.352,0.614,0.579,��,7.1,��
2022/01/28,14:50,0.585,0.872,0.555,1.074,0.755,0.353,0.614,0.578,��,9.1,��
2022/01/28,15:00,0.583,0.870,0.556,1.073,0.754,0.352,0.615,0.579,��,7.0,��
2022/01/28,15:10,0.585,0.870,0.557,1.073,0.756,0.353,0.615,0.580,���쐼,8.1,��
2022/01/28,15:20,0.585,0.872,0.556,1.074,0.756,0.352,0.615,0.581,��,7.9,��
2022/01/28,15:30,0.586,0.872,0.557,1.073,0.756,0.353,0.614,0.581,��,8.6,��
2022/01/28,15:40,0.586,0.874,0.557,1.074,0.756,0.352,0.615,0.581,��,7.2,��
2022/01/28,15:50,0.589,0.873,0.555,1.075,0.755,0.353,0.615,0.581,��,7.7,��
2022/01/28,16:00,0.588,0.875,0.557,1.075,0.756,0.352,0.614,0.581,��,5.9,��
2022/01/28,16:10,0.587,0.874,0.556,1.073,0.754,0.352,0.615,0.582,��,4.6,��
2022/01/28,16:20,0.587,0.875,0.556,1.074,0.757,0.351,0.614,0.582,��,6.0,��
2022/01/28,16:30,0.586,0.875,0.558,1.076,0.756,0.350,0.615,0.582,��,6.6,��
2022/01/28,16:40,0.587,0.872,0.556,1.075,0.756,0.352,0.612,0.582,���쐼,6.0,��
2022/01/28,16:50,0.586,0.875,0.554,1.076,0.757,0.353,0.614,0.581,��,7.5,��
2022/01/28,17:00,0.588,0.874,0.555,1.073,0.755,0.351,0.613,0.582,��,5.7,��
2022/01/28,17:10,0.586,0.873,0.556,1.075,0.757,0.353,0.614,0.582,��,5.8,��
2022/01/28,17:20,0.587,0.874,0.556,1.075,0.755,0.352,0.613,0.581,���쐼,5.8,��
2022/01/28,17:30,0.586,0.873,0.556,1.073,0.758,0.351,0.613,0.581,��,6.3,��
2022/01/28,17:40,0.587,0.876,0.556,1.076,0.757,0.352,0.614,0.581,��,6.9,��
2022/01/28,17:50,0.587,0.872,0.556,1.076,0.757,0.352,0.613,0.582,��,6.1,��
2022/01/28,18:00,0.585,0.876,0.556,1.074,0.758,0.352,0.614,0.583,��,6.1,��
2022/01/28,18:10,0.585,0.875,0.555,1.076,0.756,0.351,0.614,0.583,��,6.2,��
2022/01/28,18:20,0.586,0.876,0.554,1.075,0.755,0.352,0.614,0.581,���k��,7.2,��
2022/01/28,18:30,0.587,0.874,0.554,1.075,0.758,0.353,0.613,0.582,��,5.1,��
2022/01/28,18:40,0.586,0.875,0.555,1.075,0.754,0.352,0.614,0.581,���k��,2.0,��
2022/01/28,18:50,0.587,0.874,0.554,1.074,0.755,0.351,0.612,0.582,�k��,1.2,��
2022/01/28,19:00,0.585,0.874,0.555,1.075,0.757,0.351,0.613,0.580,���k��,2.3,��
2022/01/28,19:10,0.584,0.874,0.554,1.074,0.754,0.352,0.614,0.581,���k��,2.0,��
2022/01/28,19:20,0.586,0.874,0.554,1.075,0.756,0.353,0.613,0.582,�k��,1.9,��
2022/01/28,19:30,0.585,0.875,0.556,1.075,0.754,0.352,0.612,0.579,���k��,2.6,��
2022/01/28,19:40,0.584,0.876,0.554,1.074,0.754,0.351,0.612,0.580,�k��,2.8,��
2022/01/28,19:50,0.584,0.877,0.556,1.074,0.757,0.351,0.613,0.581,�k��,2.6,��
2022/01/28,20:00,0.585,0.872,0.554,1.075,0.755,0.352,0.611,0.582,���k��,2.3,��
2022/01/28,20:10,0.588,0.871,0.555,1.074,0.755,0.352,0.613,0.581,��,1.4,��
2022/01/28,20:20,0.584,0.874,0.555,1.071,0.757,0.352,0.612,0.581,��,1.5,��
2022/01/28,20:30,0.585,0.874,0.556,1.075,0.755,0.352,0.613,0.580,��,0.9,��
2022/01/28,20:40,0.585,0.875,0.555,1.075,0.757,0.351,0.610,0.582,�k�k��,0.6,��
2022/01/28,20:50,0.586,0.876,0.555,1.073,0.756,0.351,0.611,0.581,�k,0.9,��
2022/01/28,21:00,0.587,0.877,0.553,1.072,0.754,0.351,0.610,0.579,�k,1.5,��
2022/01/28,21:10,0.585,0.873,0.554,1.075,0.756,0.350,0.611,0.580,���k��,0.8,��
2022/01/28,21:20,0.583,0.873,0.554,1.073,0.755,0.352,0.612,0.579,�k��,1.2,��
2022/01/28,21:30,0.585,0.872,0.553,1.075,0.754,0.351,0.612,0.579,�k�k��,2.0,��
2022/01/28,21:40,0.584,0.873,0.555,1.073,0.753,0.351,0.612,0.580,�k�k��,2.0,��
2022/01/28,21:50,0.584,0.873,0.552,1.073,0.755,0.352,0.611,0.580,�k,2.0,��
2022/01/28,22:00,0.584,0.875,0.552,1.076,0.755,0.352,0.612,0.580,�k,0.9,��
2022/01/28,22:10,0.584,0.874,0.555,1.074,0.754,0.352,0.611,0.580,�k,0.9,��
2022/01/28,22:20,0.585,0.875,0.556,1.074,0.755,0.351,0.611,0.580,�k�k��,2.6,��
2022/01/28,22:30,0.585,0.874,0.555,1.072,0.754,0.351,0.612,0.579,�k,2.6,��
2022/01/28,22:40,0.585,0.875,0.556,1.076,0.755,0.352,0.612,0.579,�k��,1.7,��
2022/01/28,22:50,0.585,0.874,0.554,1.073,0.756,0.351,0.611,0.577,��,0.6,��
2022/01/28,23:00,0.584,0.875,0.555,1.074,0.754,0.352,0.610,0.578,�k,0.9,��
2022/01/28,23:10,0.585,0.874,0.555,1.073,0.755,0.351,0.610,0.579,�k��,1.7,��
2022/01/28,23:20,0.584,0.874,0.553,1.074,0.755,0.351,0.610,0.578,���쐼,1.9,��
2022/01/28,23:30,0.585,0.873,0.554,1.073,0.755,0.351,0.610,0.581,���k��,4.8,��
2022/01/28,23:40,0.585,0.873,0.555,1.073,0.752,0.351,0.612,0.579,���k��,7.1,��
2022/01/28,23:50,0.586,0.871,0.556,1.074,0.754,0.351,0.612,0.579,���k��,7.6,��
